Temp
17 18 18 18 19 19 20 21 22 22 23 23 23 24 24 25 28 28 27 32 33 33 33 33 34 34 34 32 34 33 29 30 32 32 33 34 31 32 31 27 28 28 26 27 27
17 17 18 18 19 19 20 21 22 22 22 23 23 24 24 25 26 25 33 33 32 33 32 32 31 31 30 33 34 30 28 33 34 33 34 34 34 31 29 28 27 28 28 28 27
17 17 17 18 18 19 19 21 21 22 22 23 23 23 24 25 24 29 34 34 33 33 32 32 32 31 31 33 34 32 30 33 34 35 35 35 34 34 30 29 27 27 28 27 28
16 16 17 18 18 19 19 20 21 22 22 22 23 23 25 25 29 32 33 33 33 33 32 32 31 30 30 31 35 35 35 35 34 34 35 35 33 31 30 27 28 27 29 29 28
13 13 15 17 18 19 19 20 21 22 22 22 22 23 24 24 26 33 33 33 33 33 32 31 30 30 31 32 34 35 35 36 34 34 34 35 32 29 29 29 29 29 28 28 28
12 11 12 15 18 19 20 20 21 22 22 22 22 22 22 25 33 34 33 33 33 33 32 31 31 31 30 32 33 36 36 35 35 34 35 33 30 30 29 29 29 28 28 28 29
11 10 11 13 17 19 20 21 22 22 22 22 22 22 21 25 33 33 32 34 34 33 30 34 33 32 33 32 33 34 35 33 34 35 35 33 33 30 27 28 28 27 27 26 27
10 10 10 11 15 19 20 21 22 22 22 22 22 21 21 32 32 32 33 32 33 34 33 35 35 33 33 32 32 33 32 31 33 34 35 33 31 28 26 28 27 28 29 28 25
11 10 10 11 15 19 21 22 22 22 22 22 21 21 22 30 32 34 34 33 34 35 35 35 35 32 30 30 28 28 29 32 33 34 35 33 30 29 27 28 28 28 27 26 23
11 10 11 11 15 19 21 22 21 22 22 20 21 21 24 29 33 34 34 34 33 33 32 33 27 28 26 26 27 30 32 33 33 35 30 29 29 30 29 28 29 29 23 23 22
11 11 11 12 15 18 21 21 20 20 21 23 24 24 29 31 33 33 34 34 32 32 30 30 28 27 28 28 30 31 31 33 33 34 29 29 29 28 29 28 28 27 23 24 24
11 11 11 13 16 18 19 17 23 26 23 23 26 26 29 31 32 32 34 31 31 30 30 28 27 30 30 31 31 31 34 31 32 35 31 28 31 29 28 28 28 27 24 24 23
11 11 12 14 17 18 19 23 27 26 24 28 25 27 29 31 31 31 31 30 31 30 30 28 31 32 31 32 33 33 33 32 32 34 32 29 28 28 28 27 27 26 25 25 25
11 13 14 16 17 17 19 28 28 26 22 27 29 30 32 33 32 34 33 32 31 30 30 29 31 32 32 33 33 32 33 33 34 31 29 31 27 27 25 27 26 27 24 23 24
15 16 18 17 17 18 28 27 27 26 26 31 29 34 31 31 33 33 35 32 31 31 31 30 32 32 33 34 34 32 33 33 35 31 31 30 27 27 25 28 27 26 27 26 24
17 18 19 17 17 26 25 28 27 23 27 31 32 32 31 31 32 33 33 33 33 32 31 30 32 34 33 35 35 35 34 30 28 27 28 30 28 26 24 24 26 27 26 26 27
18 19 19 18 22 25 27 24 23 24 30 32 31 31 30 31 32 32 31 31 29 30 29 30 32 33 35 35 32 31 26 26 27 26 26 26 27 26 25 26 25 26 25 25 24
20 21 20 24 26 25 26 23 25 28 30 32 31 30 30 30 30 31 30 29 29 28 27 28 30 34 34 33 32 32 28 25 29 27 27 26 26 26 25 25 25 25 26 26 24
22 21 21 28 26 24 21 22 25 27 32 32 31 30 30 32 32 31 29 28 30 28 30 30 31 33 34 34 32 33 31 29 28 27 26 24 25 26 23 24 24 27 28 28 24
20 20 23 28 26 24 21 22 26 31 32 33 30 30 29 30 31 30 29 31 32 31 30 31 31 33 33 35 34 34 31 28 24 29 28 26 26 24 23 22 23 25 28 27 24
19 20 28 28 26 20 22 23 28 32 33 32 32 32 32 33 30 29 31 34 34 33 30 30 29 30 31 32 31 30 30 28 26 25 26 24 25 25 23 22 23 23 26 25 23
17 22 28 28 22 20 23 27 29 32 32 35 33 32 33 34 32 32 33 33 33 33 31 31 26 28 32 30 33 33 32 27 26 27 25 24 25 28 24 23 23 23 26 25 23
17 20 27 28 23 23 24 28 31 31 32 34 33 34 32 33 31 32 34 34 33 31 31 31 26 25 27 28 30 30 30 31 26 23 27 26 26 22 22 24 23 25 23 24 24
16 22 22 22 21 27 26 27 30 32 33 33 33 33 32 30 29 32 33 34 32 32 28 27 24 25 25 27 28 29 30 30 28 25 26 26 27 23 23 23 23 23 24 22 25
17 21 23 22 25 25 26 27 29 27 30 32 30 30 31 28 28 29 29 31 31 29 32 27 28 29 28 29 30 30 30 30 29 27 28 29 27 24 22 23 24 25 25 26 25
18 17 18 19 21 24 22 29 29 28 28 29 28 29 27 27 28 29 29 29 30 30 29 25 27 27 27 29 29 29 29 29 31 28 27 25 23 22 22 22 22 24 26 25 25
20 20 17 19 22 24 25 29 30 29 30 30 29 27 27 29 30 30 28 27 30 31 28 27 26 25 27 28 27 27 30 29 28 28 28 27 24 23 23 24 24 24 25 25 25
Height
810 808 806 805 803 802 801 799 798 797 795 793 792 790 788 784 782 779 776 772 771 769 766 763 761 761 760 756 755 757 795 806 795 793 785 763 777 774 768 780 778 777 783 785 792
809 807 805 803 802 800 799 798 796 795 794 792 791 789 787 784 779 775 769 769 769 768 765 765 764 763 768 762 757 770 802 789 771 771 773 763 765 773 783 787 787 779 779 786 792
808 806 804 802 800 799 798 796 795 794 793 791 790 789 787 784 781 768 764 766 767 767 766 766 765 766 771 761 758 765 790 769 765 761 758 764 765 760 780 791 782 784 779 782 788
806 803 801 800 798 797 796 795 794 793 792 790 789 788 786 784 798 765 763 764 764 765 765 765 765 774 780 777 752 769 758 758 760 755 757 762 762 773 769 773 765 772 777 778 783
804 801 799 797 796 794 793 793 792 792 791 790 789 787 786 787 777 764 764 764 762 763 765 766 770 773 783 773 759 764 758 752 753 753 752 752 766 770 773 760 764 762 772 777 778
803 799 796 794 793 792 791 791 790 790 790 789 788 787 787 793 763 762 763 764 761 762 761 764 766 765 772 766 764 753 753 754 751 755 750 762 769 764 774 765 766 766 770 771 775
801 797 794 792 790 789 789 788 789 789 788 788 788 788 788 775 763 763 764 762 761 761 763 760 760 766 758 768 754 756 766 761 755 752 755 751 768 773 771 771 773 769 772 778 780
799 795 792 790 788 787 786 786 787 787 787 787 787 788 785 760 762 764 764 762 761 762 761 758 759 758 759 757 762 772 771 791 758 753 748 757 793 775 768 767 771 767 766 773 783
796 792 789 787 785 784 784 784 785 786 786 786 787 787 782 759 757 757 760 759 759 759 759 758 757 763 765 786 801 791 805 789 773 749 752 764 784 768 767 768 770 768 768 780 794
793 789 786 784 782 782 783 783 784 785 786 786 787 793 768 760 753 755 756 759 761 759 762 762 774 787 792 806 831 806 794 781 779 759 767 779 780 766 760 763 763 765 772 775 786
790 786 783 781 780 781 783 783 788 789 785 777 772 771 759 752 753 754 755 758 760 766 786 774 796 808 792 788 784 788 790 785 768 754 775 782 777 771 762 762 767 771 775 773 773
787 783 780 779 778 780 781 782 776 777 783 761 763 763 754 754 759 753 753 767 768 785 778 793 806 778 772 774 782 784 778 787 771 752 764 782 775 772 771 770 774 770 776 774 772
783 779 777 776 777 780 779 771 770 771 781 761 755 757 752 749 758 757 753 761 771 783 784 800 778 762 773 774 780 777 782 784 785 763 765 779 790 781 771 770 767 762 763 764 767
780 776 775 775 781 778 775 768 768 773 804 776 760 750 746 745 758 743 747 757 770 782 779 786 760 767 772 772 769 789 763 769 770 782 809 775 826 789 783 771 770 767 770 767 761
778 775 774 776 776 776 769 768 769 772 826 759 757 735 738 754 749 747 742 754 774 775 777 784 771 771 771 766 758 778 756 764 762 782 788 789 813 793 787 780 777 772 772 767 765
776 773 773 776 774 767 766 766 771 810 819 768 746 752 758 754 751 745 749 747 751 768 769 773 751 753 757 747 748 747 760 773 785 797 823 789 804 814 810 802 780 777 771 765 750
773 771 771 772 768 767 765 766 811 826 763 765 762 754 761 765 759 759 766 773 787 795 796 776 763 746 740 758 754 764 798 834 834 834 835 801 807 817 799 785 784 780 772 766 766
769 768 768 766 766 767 767 790 814 782 770 744 752 758 771 762 765 763 771 784 771 780 803 805 802 755 741 754 770 770 790 830 835 840 826 803 825 812 791 779 776 767 758 756 765
767 766 766 761 765 770 779 811 798 776 748 752 756 774 775 759 761 766 775 779 767 771 795 794 786 744 738 736 750 767 788 777 803 808 824 826 809 796 795 787 772 760 749 751 755
768 767 761 761 764 769 790 801 776 747 740 743 774 761 779 768 770 774 776 754 755 750 753 769 790 756 745 735 744 754 757 800 815 825 834 827 819 822 807 799 781 770 756 751 750
768 770 754 758 764 777 799 788 758 735 737 742 750 758 756 755 764 772 765 749 740 747 750 760 779 779 757 766 772 775 780 784 795 815 834 849 828 781 788 790 785 774 760 760 762
770 779 754 757 780 785 788 768 747 741 727 724 731 739 744 743 757 761 760 751 733 737 762 757 789 801 780 761 747 755 769 784 813 814 813 824 818 760 775 782 779 773 765 765 762
777 771 758 758 791 787 768 760 748 743 734 728 733 728 735 748 765 753 747 736 732 745 760 758 795 821 806 784 759 773 768 767 785 802 807 823 810 777 776 778 773 775 773 771 763
776 781 768 764 766 769 772 764 754 732 733 725 731 729 744 758 754 754 754 741 736 742 747 758 795 807 827 806 790 787 772 765 780 811 803 802 785 785 781 781 777 780 776 771 765
777 781 776 785 772 769 767 763 762 765 740 728 744 746 748 775 770 773 764 755 749 752 750 765 793 782 784 781 776 776 776 768 776 775 790 776 779 780 784 780 779 774 770 768 767
788 790 782 784 774 767 765 756 759 759 758 759 758 754 757 776 772 778 770 768 768 759 765 771 790 784 796 778 779 783 772 766 760 766 771 777 790 777 778 777 775 771 772 770 768
787 784 786 784 773 769 767 754 751 749 749 749 753 761 766 762 754 752 753 757 756 762 771 776 788 799 806 786 788 802 776 772 768 765 766 779 781 775 778 774 774 770 769 770 771
Wind_Speed
13 12 12 12 12 11 11 10 10 11 11 12 14 15 17 20 20 11 6 7 5 10 16 19 18 18 21 5 6 3 4 1 2 3 2 3 9 8 5 12 7 11 6 10 31
14 13 13 13 12 12 11 10 10 10 11 11 13 15 16 20 18 11 16 13 13 14 13 10 9 15 5 5 4 5 4 5 5 5 3 2 8 12 6 8 3 2 5 29 30
15 14 14 13 12 12 12 11 10 10 11 11 12 13 15 15 5 7 6 14 14 13 11 12 12 4 5 3 3 5 5 6 5 6 4 1 1 5 16 1 4 5 17 23 27
18 15 14 14 12 12 12 11 9 9 10 10 12 13 13 4 2 4 2 7 12 11 10 9 6 8 6 5 4 4 5 4 6 7 5 6 5 5 10 11 14 7 12 20 19
19 18 15 14 13 12 11 10 9 8 8 9 10 11 4 2 9 12 8 7 12 11 5 2 5 1 3 6 5 3 2 3 8 9 8 2 7 9 10 16 11 14 8 17 19
20 18 17 14 13 13 10 9 8 8 8 8 8 8 2 3 8 8 9 8 11 9 9 1 6 5 9 5 4 3 3 5 6 8 7 11 6 6 5 7 11 11 10 10 18
22 19 17 15 14 12 10 9 8 7 6 6 5 3 1 13 3 9 11 11 10 13 4 17 12 2 4 9 7 8 3 6 6 7 6 7 2 2 9 6 7 9 6 7 10
23 20 17 16 14 11 9 8 7 6 5 5 3 1 7 11 14 21 16 17 19 18 17 23 23 4 2 4 8 5 3 1 7 8 5 6 7 4 13 12 10 9 12 12 10
24 20 18 17 13 9 8 6 5 4 3 2 1 2 9 11 7 17 14 16 12 16 16 16 3 1 7 4 6 5 6 1 6 10 3 3 6 2 8 7 9 6 7 12 11
24 21 18 16 11 7 4 3 2 2 2 1 3 4 7 5 8 14 15 13 5 5 6 3 5 3 5 5 4 5 3 4 3 1 8 4 3 2 6 6 5 4 19 22 21
25 21 18 14 8 4 3 1 3 2 4 8 7 4 4 7 9 11 20 10 1 2 5 3 3 8 12 8 6 6 8 3 7 7 5 4 5 7 5 2 6 3 14 19 17
26 21 16 11 5 3 4 2 5 2 6 16 11 8 17 11 1 6 13 5 4 5 1 5 6 15 9 8 7 10 2 6 6 3 5 4 4 1 5 1 3 4 8 13 15
26 20 13 7 2 3 8 16 9 13 1 6 7 6 7 9 8 9 12 6 3 2 6 7 15 4 7 16 2 3 2 5 6 5 4 5 7 4 1 4 4 6 10 9 12
26 17 7 3 2 1 7 10 13 11 4 6 3 7 4 4 3 11 16 7 3 11 6 7 13 8 8 7 4 3 7 6 6 4 3 3 5 4 5 6 5 6 7 10 14
24 15 3 10 1 4 0 15 2 3 3 2 4 4 7 8 2 3 22 3 6 8 4 11 7 10 4 5 5 8 8 6 3 3 2 2 3 6 5 8 11 7 9 4 11
21 12 4 8 9 8 17 12 7 5 4 3 6 6 5 3 3 2 6 0 3 3 3 10 5 5 7 3 4 3 4 8 6 3 2 3 5 5 5 6 9 14 17 23 26
16 8 9 12 4 8 13 4 5 3 6 4 5 6 6 6 2 9 8 6 4 1 4 7 7 7 4 2 6 7 7 4 6 4 5 5 5 3 4 10 5 7 13 16 18
10 4 5 19 12 8 7 5 3 5 6 2 5 6 7 6 6 8 6 5 6 4 3 3 7 2 2 9 7 5 7 5 4 3 3 6 1 2 4 6 11 5 12 11 7
4 1 4 12 15 7 5 2 7 6 3 6 3 6 5 5 4 4 8 8 9 10 6 1 4 6 4 5 9 3 0 6 4 2 4 3 3 6 7 9 10 10 10 12 14
4 3 7 11 9 5 4 5 5 5 7 0 10 8 9 7 7 7 8 5 6 10 7 5 2 3 7 5 4 3 3 5 4 1 1 3 5 4 2 3 2 8 7 11 11
3 2 3 15 14 4 3 6 6 9 5 5 7 5 3 2 10 7 5 5 5 5 9 4 4 7 7 3 4 4 5 4 4 5 5 3 6 8 13 11 11 10 8 5 11
4 2 9 22 3 1 2 5 5 14 24 6 6 5 6 5 2 3 2 4 3 3 3 3 5 1 3 8 4 3 1 4 4 7 2 5 6 6 8 13 9 10 7 4 12
2 3 15 7 2 3 6 7 8 11 7 4 5 5 4 2 5 3 3 2 7 5 4 2 2 3 9 8 9 6 4 4 3 3 3 5 5 3 6 5 9 5 8 6 7
1 3 4 3 2 1 6 7 5 7 6 4 3 7 5 7 10 6 3 3 5 5 6 8 3 6 5 7 4 7 10 8 4 3 3 5 4 5 5 6 6 6 5 6 6
2 2 0 3 5 6 5 6 6 8 8 7 8 8 7 6 7 7 7 5 8 6 4 5 2 2 1 2 4 3 8 11 7 7 5 5 5 2 5 5 2 5 5 5 9
3 3 5 3 5 6 6 5 5 2 4 8 9 12 12 6 4 2 1 4 2 4 4 5 1 3 6 6 6 5 9 11 4 5 5 9 6 5 6 6 5 8 1 7 10
8 6 3 5 7 6 7 3 8 6 4 6 5 7 10 3 1 3 4 4 4 2 2 2 3 3 4 4 6 6 5 7 6 7 4 3 6 5 4 7 5 7 5 6 7
Wind_Direction
339 336 333 328 332 331 325 321 321 322 323 323 325 327 331 326 324 310 255 243 274 297 298 307 316 328 327 267 193 99 60 98 95 100 239 319 119 274 118 136 195 182 146 160 153
336 331 325 323 324 321 320 315 315 318 320 320 323 327 332 331 326 279 261 252 260 283 294 321 322 339 314 281 318 98 117 193 186 182 185 252 119 127 115 131 282 16 147 145 144
331 324 317 315 313 311 312 308 308 313 316 319 321 327 331 330 327 251 252 240 254 261 283 309 315 310 290 304 240 158 171 194 204 167 165 46 201 124 136 162 166 191 142 152 159
336 322 312 307 306 302 302 300 299 304 310 315 321 327 329 331 269 324 281 206 234 259 291 334 350 347 324 297 239 124 216 189 180 196 160 163 79 84 133 193 155 145 170 165 170
338 328 316 302 300 296 294 293 291 293 300 309 322 332 341 4 253 262 272 216 248 262 272 280 299 23 234 298 312 115 247 274 172 208 179 173 146 146 160 164 147 144 193 174 174
337 330 319 307 295 291 290 284 282 285 293 302 321 337 18 273 259 202 214 214 243 261 269 110 253 261 273 293 39 298 270 278 127 236 184 138 161 103 215 161 155 152 197 190 190
338 329 322 313 297 288 283 276 274 279 284 294 315 352 310 235 216 221 204 223 238 245 254 275 275 298 315 332 342 304 300 314 271 219 166 141 223 116 109 177 164 164 230 245 208
338 330 323 316 303 288 276 268 266 269 278 291 307 108 248 263 272 261 253 255 257 257 253 272 284 278 39 311 350 346 2 31 305 166 215 96 278 147 164 163 178 211 201 214 256
335 331 323 317 304 286 272 264 262 268 278 265 358 163 267 305 231 228 232 246 266 257 254 272 293 307 359 46 354 351 263 90 315 203 136 90 245 240 146 190 198 189 158 68 13
335 329 322 316 304 284 272 243 241 263 183 133 278 338 275 241 207 202 212 238 257 271 341 354 36 19 353 71 256 313 321 322 267 80 55 90 194 252 221 224 247 112 120 123 195
334 328 322 317 302 280 157 171 31 4 223 197 191 240 263 248 197 208 223 237 249 123 206 283 94 249 246 207 235 259 274 314 291 291 101 168 192 227 214 256 360 99 139 159 187
334 327 320 313 282 235 198 195 195 137 291 224 232 258 276 271 174 235 206 156 156 220 86 359 240 242 251 253 255 251 287 295 307 343 104 210 244 133 175 188 86 247 156 172 185
336 329 318 307 251 228 225 235 178 338 18 283 191 198 234 141 204 211 150 195 200 279 244 192 243 229 226 273 225 305 259 282 231 307 63 106 322 353 171 149 141 172 174 200 199
342 333 318 127 184 193 249 335 269 261 50 268 207 256 207 178 276 202 187 144 205 225 240 225 260 230 247 223 119 298 247 262 273 47 289 148 273 315 329 336 50 66 155 189 208
345 338 260 168 241 213 171 338 144 114 7 171 193 193 164 164 197 234 185 78 222 249 71 270 297 299 298 216 158 232 270 234 265 356 33 301 61 255 2 8 355 34 36 288 234
342 331 229 203 257 265 326 349 153 45 264 223 165 166 111 244 279 44 154 64 188 243 263 247 246 222 212 242 218 277 342 7 33 85 337 230 135 339 23 320 302 38 8 5 347
336 321 203 183 212 321 343 48 59 145 317 209 170 140 167 209 268 174 173 206 172 81 295 333 283 276 167 284 343 68 59 342 344 358 217 292 62 43 326 339 354 3 10 14 12
325 317 225 223 237 322 12 53 164 231 239 172 141 145 185 168 237 195 143 204 264 131 43 224 323 185 193 175 190 222 146 160 240 226 243 23 327 208 258 340 31 39 36 355 69
344 339 242 221 236 262 73 95 210 213 247 153 70 144 251 229 151 147 200 206 215 168 192 182 275 308 186 150 133 261 35 191 135 346 76 310 324 59 11 22 30 53 44 288 311
325 283 251 205 204 125 78 240 242 230 309 114 212 174 203 228 151 183 180 231 241 180 167 264 343 21 304 63 21 76 228 20 14 353 47 298 296 172 204 200 157 109 164 264 280
335 12 265 172 154 62 177 238 283 277 301 212 190 163 202 169 188 198 201 295 129 55 130 170 84 306 32 24 188 352 26 53 126 142 163 153 264 213 174 186 169 193 214 262 290
351 19 163 161 88 215 197 220 287 298 307 255 148 131 183 86 88 72 167 141 192 90 63 352 126 110 245 285 88 142 217 77 99 287 140 150 265 209 154 177 193 225 239 340 300
352 260 174 177 129 276 275 277 275 284 281 1 68 72 91 137 87 109 109 99 75 89 123 1 34 24 350 349 358 37 316 186 161 97 248 140 259 133 116 170 242 350 331 307 282
55 18 329 23 170 243 322 284 326 324 290 37 76 94 71 42 27 65 358 41 67 79 123 83 95 144 173 222 229 330 330 331 123 127 237 225 223 204 181 230 321 346 287 312 37
57 319 172 280 294 249 201 284 7 356 340 15 32 31 113 48 42 31 349 39 22 26 5 102 124 107 161 236 15 315 322 318 320 247 162 248 177 77 154 210 250 231 279 96 75
56 30 345 302 275 260 137 214 172 64 342 343 85 58 67 93 122 108 131 30 115 348 32 354 249 125 351 340 1 332 309 297 287 75 56 101 53 137 132 136 101 64 162 74 82
350 326 116 283 319 17 324 99 33 86 307 67 111 80 56 48 213 250 187 193 214 193 273 87 110 63 278 327 13 351 285 42 38 17 160 118 163 168 130 131 108 69 54 86 83